Regional Weather Roundup
Issued by NWS

Home | Current Version | Previous Version | Text Only | Print | Product List | Glossary On
Versions: 1 2 3 4 5 6 7 8 9 10 11 12 13 14 15 16 17 18 19 20 21 22 23 24 25 26 27 28 29 30 31 32 33 34 35 36 37 38 39 40 41 42 43 44 45 46 47 48 49 50
102
ASUS43 KMPX 070910
RWRMN
WEATHER ROUNDUP FOR MINNESOTA
NATIONAL WEATHER SERVICE TWIN CITIES/CHANHASSEN MN
300 AM CST SUN FEB 07 2016


NOTE: "FAIR" INDICATES FEW OR NO CLOUDS BELOW 12,000 FEET WITH NO
SIGNIFICANT WEATHER AND/OR OBSTRUCTIONS TO VISIBILITY. N/A MEANS
CURRENT SKY AND/OR WEATHER CONDITIONS ARE NOT AVAILABLE.

MNZ060>063-068>070-071000-
   Twin Cities Metro

CITY           SKY/WX    TMP DP  RH WIND       PRES   REMARKS
TWIN CITIES    MOCLDY    33  27  78 SW6       29.67S WCI  28
ST PAUL        CLOUDY    30  27  88 S6        29.68F WCI  24
CRYSTAL        CLOUDY    32  27  81 S7        29.65F WCI  26
BLAINE         CLOUDY    34  28  80 S9        29.64F WCI  26
LAKEVILLE      PTCLDY    32  28  86 SW7       29.67F WCI  26
EDEN PRAIRIE   PTCLDY    31  26  82 SW6       29.66F WCI  25
SOUTH ST PAUL  CLOUDY    32  28  82 CALM      29.67F
LAKE ELMO      FAIR      32  30  93 S8        29.67F WCI  25
$$
MNZ001>005-007-008-013>017-022>024-027-028-071000-
   Northwest Minnesota

CITY           SKY/WX    TMP DP  RH WIND       PRES   REMARKS
BEMIDJI        LGT RAIN  34  32  92 W12       29.43F WCI  25
HALLOCK        CLOUDY    36  32  87 NW21      29.42R
ROSEAU         CLOUDY    37  32  81 W12G17    29.37S
WARROAD        CLOUDY    36  30  80 SW8       29.37S
THIEF RVR FALL CLOUDY    36  30  80 W14       29.43S
CROOKSTON      FLURRIES  34  34 100 W21G28    29.47S WCI  22
FOSSTON        MIX PCPN  30  30 100 W14       29.46S WCI  20
DETROIT LAKES  LGT SNOW  34  32  93 W16G23    29.53S WCI  23
MOORHEAD       RAIN      34  32  93 W22G28    29.58R WCI  22
PARK RAPIDS    LGT RAIN  35  32  88 W16       29.48S WCI  25
MAHNOMEN       FLURRIES  32  32  99 W21G28    29.48S WCI  20
$$
MNZ006-009>011-018-025>026-071000-
   North Central Minnesota

CITY           SKY/WX    TMP DP  RH WIND       PRES   REMARKS
BAUDETTE       CLOUDY    36  30  79 SW7       29.37S
FLAG ISLAND    DRIZZLE   30  28  93 SE3       29.34F
INTL FALLS     CLOUDY    34  31  88 VRB5      29.40F WCI  30
WASKISH        CLOUDY    36  34  93 SW12      29.40F
LONGVILLE      MOCLDY    34  30  86 SW7       29.47F WCI  28
GRAND RAPIDS   CLOUDY    34  30  86 S12       29.48F WCI  25
CRANE LAKE     CLOUDY    32  30  93 S5        29.47F WCI  27
ORR            CLOUDY    32  30  93 S8        29.42F WCI  25
COOK           CLOUDY    34  32  93 S8        29.45F WCI  27
WALKER         CLOUDY    34  32  92 SW9       29.45F WCI  27
$$
MNZ012-019>021-037-071000-
   Northeast Minnesota

CITY           SKY/WX    TMP DP  RH WIND       PRES   REMARKS
DULUTH         CLOUDY    32  29  88 SW12      29.51F WCI  23
ELY            CLOUDY    32  30  93 S12       29.46F WCI  23
HIBBING        CLOUDY    32  31  96 S7        29.48F WCI  26
EVELETH        CLOUDY    34  32  93 SW12      29.49F WCI  25
DULUTH HARBOR  MOCLDY    34  30  86 SW13      29.56F WCI  25
TWO HARBORS    CLOUDY    36  30  80 SW12      29.52F
SILVER BAY     CLOUDY    34  30  86 S8        29.51F WCI  27
GRAND MARAIS     N/A     33  32  96 S10       29.56F WCI  25
G MARAIS ARPRT MIX PCPN  27  25  93 S7        29.52F WCI  19
$$
MNZ029>031-032-039>041-046>048-054>057-064-071000-
   West Central Minnesota

CITY           SKY/WX    TMP DP  RH WIND       PRES   REMARKS
FERGUS FALLS   CLOUDY    36  34  93 W15       29.61S
WHEATON        CLOUDY    39  30  70 W20G28    29.66S
MORRIS         CLOUDY    37  30  75 W17       29.64S
ALEXANDRIA     CLOUDY    37  31  78 W26G41    29.59F
ELBOW LAKE     LGT RAIN  35  32  90 W15G24    29.62S WCI  25
WADENA         DRIZZLE   34  32  93 W16       29.52F WCI  23
GLENWOOD       CLOUDY    36  32  87 W17       29.62S
APPLETON       PTCLDY    36  28  75 W15       29.68S
BENSON         CLOUDY    36  30  80 W10       29.66F
ORTONVILLE     MOCLDY    37  28  70 W15G24    29.68S
MADISON        PTCLDY    37  28  70 W17G23    29.70S
WILLMAR        CLOUDY    37  34  87 W13       29.67F
$$
MNZ033>034-036-042>043-049>051-058-059-071000-
   Central Minnesota

CITY           SKY/WX    TMP DP  RH WIND       PRES   REMARKS
ST CLOUD       PTCLDY    32  29  88 SW10      29.61S WCI  24
SAUK CENTRE    CLOUDY    35  32  90 W16G23    29.60F WCI  25
PAYNESVILLE    MOCLDY    36  32  85 W15       29.63F
AITKIN         CLEAR     34  27  75 S5        29.50F WCI  30
PINE RIVER     CLOUDY    36  30  80 SW7       29.53F
BRAINERD       CLOUDY    35  30  82 SW12      29.52F WCI  27
STAPLES        DRIZZLE   36  32  87 W13G20    29.53F
LONG PRAIRIE   CLOUDY    34  32  93 SW16      29.58F WCI  23
LITTLE FALLS   CLOUDY    36  30  80 SW13G20   29.58F
LITCHFIELD     PTCLDY    37  34  87 W16G26    29.65S
BUFFALO        CLEAR     30  27  86 S3        29.65F
MAPLE LAKE     CLEAR     32  29  90 S7        29.65S WCI  26
$$
MNZ037-044-045-052-053-071000-
   East Central Minnesota

CITY           SKY/WX    TMP DP  RH WIND       PRES   REMARKS
PRINCETON      PTCLDY    34  30  86 S10       29.61R WCI  26
MORA           CLOUDY    34  30  86 SW9       29.58S WCI  26
CAMBRIDGE      CLOUDY    36  27  69 SW10      29.60R
RUSH CITY      CLOUDY    32  30  92 S13       29.58F WCI  23
MOOSE LAKE     MOCLDY    32  30  93 S6        29.52F WCI  26
HINCKLEY       PTSUNNY   32  32 100 S10       29.55F WCI  24
CLOQUET        MOCLDY    32  28  86 S10       29.52F WCI  24
MCGREGOR       PTCLDY    32  30  93 S5        29.52F WCI  27
$$
MNZ071>073-080-081-089-090-097-098-071000-
   Southwest Minnesota

CITY           SKY/WX    TMP DP  RH WIND       PRES   REMARKS
MONTEVIDEO     CLOUDY    37  28  70 NW14G21   29.71S
GRANITE FALLS  PTCLDY    37  31  81 SW17      29.72S
CANBY          CLEAR     40  32  71 NW21G26   29.73F
MARSHALL       MOCLDY    38  28  67 W23       29.73R
REDWOOD FALLS  PTCLDY    36  28  73 W14       29.71R
OLIVIA         PTCLDY    36  32  87 W13       29.68S
PIPESTONE      CLEAR     37  23  56 NW16G22   29.77R
WINDOM         CLEAR     34  27  75 W14       29.75S WCI  24
WORTHINGTON    CLEAR     34  25  69 W18       29.78R WCI  23
JACKSON        CLEAR     34  27  75 W17       29.76S WCI  23
TRACY          PTCLDY    36  29  74 W12G20    29.74S
SLAYTON        CLEAR     35  29  80 W20       29.77S WCI  24
$$
MNZ065>067-074>077-082>085-091>093-071000-
   South Central Minnesota

CITY           SKY/WX    TMP DP  RH WIND       PRES   REMARKS
MANKATO        MOCLDY    36  27  69 W14       29.70F
NEW ULM        CLEAR     34  28  80 W15       29.71R WCI  24
ST JAMES       CLEAR     37  30  75 W16       29.75R
FAIRMONT       MOCLDY    36  27  69 W18       29.74R
GLENCOE        CLOUDY    34  30  86 W10       29.66F WCI  26
FARIBAULT        N/A     32  27  80 S9        29.69F WCI  24
OWATONNA       PTCLDY    32  27  80 SW14      29.71F WCI  22
WASECA         CLOUDY    32  28  86 SW12      29.72F WCI  23
ALBERT LEA     CLOUDY    34  28  80 SW10G18   29.72F WCI  26
$$
MNZ078>079-086>088-094>096-071000-
   Southeast Minnesota

CITY           SKY/WX    TMP DP  RH WIND       PRES   REMARKS
ROCHESTER      CLOUDY    32  27  81 SW16      29.69F WCI  21
RED WING       CLOUDY    34  27  75 SW6       29.69F WCI  29
STANTON        MOCLDY    33  28  83 SW10      29.67F WCI  24
DODGE CENTER   CLOUDY    30  27  86 SW20      29.69F WCI  18
WINONA         CLOUDY    36  30  80 SW3       29.74F
AUSTIN         PTCLDY    34  28  80 SW13      29.73S WCI  25
PRESTON        CLOUDY    32  28  83 SW18G24   29.73R WCI  21
$$
ABBREVIATIONS USED IN REMARKS
   TC - TEMPERATURES IN CELSIUS
  WCI - WIND CHILL INDEX
   HX - HEAT INDEX
  VSB - VISIBILITY
$$




USA.gov is the U.S. government's official web portal to all federal, state and local government web resources and services.